Regional Weather Roundup
Issued by NWS Sioux Falls, SD

Home | Current Version | Previous Version | Graphics & Text | Print | Product List | Glossary Off
Versions: 1 2 3 4 5 6 7 8 9 10 11 12 13 14 15 16 17 18 19 20 21 22 23 24 25 26 27 28 29 30 31 32 33 34 35 36 37 38 39 40 41 42 43 44 45 46 47 48 49 50

000
ASUS43 KFSD 252202
RWRFSD

WEATHER ROUNDUP FOR SE SOUTH DAKOTA/SW MINNESOTA/NW IOWA
NATIONAL WEATHER SERVICE SIOUX FALLS SD
500 PM CDT SAT APR 25 2015

NOTE: "FAIR" INDICATES FEW OR NO CLOUDS BELOW 12,000 FEET WITH NO
SIGNIFICANT WEATHER AND OR OBSTRUCTIONS TO VISIBILITY.


SDZ038>040-050-052>070-252300-
SOUTHEAST SOUTH DAKOTA

CITY           SKY/WX    TMP DP  RH WIND       PRES   REMARKS
BROOKINGS      CLOUDY    55  43  62 SE6       29.82S
CHAMBERLAIN    NOT AVBL
HURON          CLOUDY    60  44  55 SE13      29.79R
MADISON        CLOUDY    55  45  67 E15       29.80S
MITCHELL       PTSUNNY   60  47  61 E14       29.79R
SIOUX FALLS    PTSUNNY   61  42  49 E15       29.78R
WINNER         CLOUDY    61  47  59 E15       29.76R
YANKTON        MOSUNNY   61  41  48 E14G20    29.76S
$$

MNZ071-072-080-081-089-090-097-098-252300-
SOUTHWEST MINNESOTA

CITY           SKY/WX    TMP DP  RH WIND       PRES   REMARKS
FAIRMONT       CLOUDY    54  36  50 NE17G23   29.83R
JACKSON        CLOUDY    54  37  54 E14G21    29.83R
LUVERNE        PTSUNNY   59  41  51 E14G21    29.80R
MARSHALL       MOSUNNY   59  37  44 SE14G21   29.82R
MONTEVIDEO     PTSUNNY   61  43  51 SE16      29.85S
REDWOOD FALLS  MOSUNNY   58  39  49 E13       29.83S
TRACY          CLOUDY    58  40  52 E13G20    29.84R
WORTHINGTON    CLOUDY    55  39  54 E17       29.81S
$$

IAZ001>003-012>014-020>022-031-032-NEZ013-014-SDZ071-252300-
NORTHWEST IOWA

CITY           SKY/WX    TMP DP  RH WIND       PRES   REMARKS
DENISON        CLOUDY    52  48  87 NE21      29.74S
ESTHERVILLE    CLOUDY    52  41  66 NE15      29.81R
SIOUX CITY     PTSUNNY   60  43  53 E17       29.76R
SPENCER        CLOUDY    55  43  63 NE17      29.80R
$$

ABBREVIATIONS USED IN REMARKS
   TC - TEMPERATURE IN CELSIUS
  WCI - WIND CHILL INDEX
   HX - HEAT INDEX
  VSB - VISIBILITY




USA.gov is the U.S. government's official web portal to all federal, state and local government web resources and services.